Regional Weather Roundup
Issued by NWS

Home | Current Version | Previous Version | Text Only | Print | Product List | Glossary Off
Versions: 1 2 3 4 5 6 7 8 9 10 11 12 13 14 15 16 17 18 19 20 21 22 23 24 25 26 27 28 29 30 31 32 33 34 35 36 37 38 39 40 41 42 43 44 45 46 47 48 49 50

000
ASUS43 KMKX 281500
RWRWI

WISCONSIN REGIONAL WEATHER ROUNDUP
NATIONAL WEATHER SERVICE MILWAUKEE/SULLIVAN WI
1000 AM CDT SUN AUG 28 2016

NOTE: "FAIR" INDICATES FEW OR NO CLOUDS BELOW 12,000 FEET WITH NO
SIGNIFICANT WEATHER AND/OR OBSTRUCTIONS TO VISIBILITY.

WIZ001-002-006>008-014>016-023>028-281600-
NORTHWEST WISCONSIN

CITY           SKY/WX    TMP DP  RH WIND       PRES   REMARKS
SUPERIOR ARPT  CLOUDY    61  60  96 SW3       30.17S
ASHLAND        CLOUDY    63  62  97 CALM      30.19F
HAYWARD        CLOUDY    64  59  83 S3        30.19F
SIREN          CLOUDY    61  61  98 S5        30.19R FOG
CUMBERLAND     FOG       59  59 100 CALM      30.20S VSB 1/4
RICE LAKE      FOG       61  60  96 E3        30.21S VSB 3/4
CHETEK         NOT AVBL
LADYSMITH      CLOUDY    65  62  89 CALM      30.22S
EAU CLAIRE     NOT AVBL
MENOMONIE      CLOUDY    65  65 100 SE6       30.20R
NEW RICHMOND   CLOUDY    65  65 100 CALM      30.19R FOG
OSCEOLA        CLOUDY    62  62 100 SE5       30.20S FOG
$$

WIZ003>005-009-010-017-018-281600-
NORTH CENTRAL WISCONSIN

CITY           SKY/WX    TMP DP  RH WIND       PRES   REMARKS
MANITOWISH WTR NOT AVBL
ARBOR VITAE    CLOUDY    64  59  83 W5        30.22S
WOODRUFF       CLOUDY    64  59  83 W5        30.22S
RHINELANDER    CLOUDY    67  59  75 W3        30.23R
EAGLE RIVER    CLOUDY    64  59  85 W3        30.22R
LAND O LAKES   PTSUNNY   64  59  83 SW3       30.22R
PHILLIPS       CLOUDY    64  60  86 CALM      30.22R
TOMAHAWK       CLOUDY    63  57  81 CALM      30.23R
MEDFORD        MOSUNNY   65  64  98 CALM      30.22R
MERRILL        MOSUNNY   66  60  82 CALM      30.22S
$$

WIZ029-030-035-036-043>047-281600-
CENTRAL WISCONSIN

CITY           SKY/WX    TMP DP  RH WIND       PRES   REMARKS
WAUSAU         MOSUNNY   67  60  78 S6        30.21R
MOSINEE        PTSUNNY   66  63  88 E3        30.24R
MARSHFIELD     CLOUDY    68  61  78 CALM      30.22R
STEVENS POINT  CLOUDY    64  60  86 CALM      30.23S
WAUPACA        CLOUDY    71  64  79 W3        30.23R
WAUTOMA        PTSUNNY   70  65  84 S5        30.22F
WISC RAPIDS    CLOUDY    70  63  78 CALM      30.23S
CAMP DOUGLAS   NOT AVBL
$$

WIZ011>013-019>022-031-037>040-048>050-281600-
NORTHEAST WISCONSIN

CITY           SKY/WX    TMP DP  RH WIND       PRES   REMARKS
ANTIGO         MOSUNNY   67  60  80 N5        30.22S
SHAWANO        SUNNY     71  62  74 CALM      30.21S
OCONTO         NOT AVBL
STURGEON BAY   MOSUNNY   70  64  81 W6        30.21R
GREEN BAY      PTSUNNY   68  65  90 SW3       30.22R
MANITOWOC      NOT AVBL
APPLETON       PTSUNNY   70  64  83 CALM      30.22R
CLINTONVILLE   PTSUNNY   68  61  77 CALM      30.22R
OSHKOSH        PTSUNNY   72  64  76 NW5       30.23R
$$

WIZ032>034-041-042-053>061-281600-
SOUTHWEST WISCONSIN

CITY           SKY/WX    TMP DP  RH WIND       PRES   REMARKS
LA CROSSE      CLOUDY    69  67  93 E5        30.19S
SPARTA         CLOUDY    66  65  96 E7        30.20F
VIROQUA        CLOUDY    66  66 100 E6        30.22S VSB 1/4
BOSCOBEL       FOG       67  66  97 N5        30.21S VSB 1
PRAIRIE DU CHI CLOUDY    67  65  96 CALM      30.19S FOG
PLATTEVILLE    SUNNY     73  72  94 E8        30.22S
$$

WIZ056-057-062-063-064-067-068-281600-
SOUTH CENTRAL WISCONSIN

CITY           SKY/WX    TMP DP  RH WIND       PRES   REMARKS
REEDSBURG      NOT AVBL
BARABOO/DELLS  CLOUDY    65  64  96 SE5       30.24R FOG
LONE ROCK      FOG       66  65  96 E5        30.23R VSB 3/4
MINERAL POINT  SUNNY     73  73 100 SE5       30.22F
MADISON        FOG       66  65  96 CALM      30.22S VSB 3/4
MIDDLETON      CLOUDY    67  67 100 CALM      30.24R VSB<1/4
WATERTOWN      CLOUDY    65  65 100 E3        30.23S FOG
MONROE         SUNNY     73  68  83 E6        30.22F
JANESVILLE     MOSUNNY   75  66  73 VRB5      30.21S
$$

WIZ051-052-058>065-066-070>072-281600-
SOUTHEAST WISCONSIN

CITY           SKY/WX    TMP DP  RH WIND       PRES   REMARKS
MILWAUKEE      CLOUDY    69  65  86 NE12      30.23S FOG
WAUKESHA       FOG       64  64 100 CALM      30.25R VSB 1
MILWAUKEE/TIMM CLOUDY    64  61  88 CALM      30.25R
RACINE         FOG       67  65  93 N10       30.24R VSB 1/2
BURLINGTON     CLOUDY    71  66  84 NE3       30.23R
KENOSHA        MOSUNNY   75  67  76 E6        30.23R
FOND DU LAC    PTSUNNY   71  64  78 CALM      30.23R
SHEBOYGAN      MOSUNNY   72  63  73 CALM      30.22R
WEST BEND      CLOUDY    64  64 100 CALM      30.23S
JUNEAU         CLOUDY    64  64 100 NE3       30.25R
$$

LSZ147-162-281600-
LAKE SUPERIOR

STATION/POSITION TIME  TEMP    WIND        PRES    WAVE
                       AIR SEA DIR/SP/G            HT/PER
                 (UTC) (F)     (DEG/KT/KT) (MB)    (FT/S)
W MID LAKE BUOY  1350   65 67  230/ 10/ 12 1021.0R   1/ 3
DEVILS ISLAND    1400   64     220/ 10/ 11 1021.8R
PORT WING        1440   63     260/  2/  4 1021.7S
SAXON HARBOR     1400   64      CALM  /  2 1021.7
$$

LMZ867-665-643>646-281600-
LAKE MICHIGAN

STATION/POSITION TIME  TEMP    WIND        PRES    WAVE
                       AIR SEA DIR/SP/G            HT/PER
                 (UTC) (F)     (DEG/KT/KT) (MB)    (FT/S)
CHAMBERS ISLAND  1400   69     190/  4/  8 1022.0R
S GREEN BAY BUOY 1400   67 71  250/ 10/ 12 1021.6R
N MID LAKE BUOY  1350   67 70  250/ 10/ 12 1020.8R   1/ 3
NORTHPORT PIER   1400   71     250/  4/  9 1021.7R
SISTER BAY       1322   73     300/ 12/ 13   N/A
KEWAUNEE LAKESHO 1400   67     290/  4/  6 1022.0R
SHEBOYGAN LAKESH 1400   69     130/  1/  1 1022.5R
PORT WASHINGTON  1400   68     300/  3/  5 1024.0
ATWATER BUOY     1400   64      20/ 10/ 14   N/A
MILWAUKEE LAKESH 1410   63      20/  8/  9   N/A
S MID LAKE BUOY  1350   73 74   80/  4/  4 1022.1R   1
KENOSHA   LAKESH 1400   68        CALM     1023.0R
$$

TC  - TEMPERATURE IN CELSIUS
VSB - VISIBILITY IN STATUTE MILES
WCI - WIND CHILL INDEX
HX  - HEAT INDEX





USA.gov is the U.S. government's official web portal to all federal, state and local government web resources and services.